ARG1569 SANU-SACO

Flight info

Callsign ARG1569
Flight time 0h 44m
Altitude 33000
Route KIBUN DCT ORABA UW24 PAMAK PAMAK2X
Aircraft B738/M-SDE2E3FGHIRWXY/LB1

Departure

Time 2026-05-08 14:55
Airport Domingo Faustino Sarmiento Airport (SANU)

Arrival

Time 2026-05-08 15:39
Airport Ingeniero Aeronáutico Ambrosio L.V. Taravella International Airport (SACO)
Time Latitude Longitude Altitude Speed Heading
2026-05-08 14:09 -31.57194 -68.42206 1955 ft 0 kts 330°
2026-05-08 14:46 -31.57195 -68.42206 1955 ft 0 kts 330°
2026-05-08 14:50 -31.57186 -68.42208 1955 ft 5 kts 349°
2026-05-08 14:50 -31.57147 -68.42191 1955 ft 6 kts 27°
2026-05-08 14:50 -31.57101 -68.42184 1955 ft 9 kts
2026-05-08 14:51 -31.57014 -68.42160 1958 ft 16 kts 36°
2026-05-08 14:51 -31.56935 -68.42070 1955 ft 15 kts 44°
2026-05-08 14:51 -31.56860 -68.41984 1957 ft 15 kts 44°
2026-05-08 14:51 -31.56788 -68.41901 1959 ft 14 kts 44°
2026-05-08 14:52 -31.56706 -68.41842 1958 ft 14 kts 18°
2026-05-08 14:52 -31.56525 -68.41837 1957 ft 13 kts 360°
2026-05-08 14:52 -31.56437 -68.41837 1958 ft 12 kts 360°
2026-05-08 14:53 -31.56352 -68.41838 1959 ft 12 kts 359°
2026-05-08 14:53 -31.56269 -68.41839 1958 ft 13 kts 359°
2026-05-08 14:53 -31.56166 -68.41840 1959 ft 15 kts 359°
2026-05-08 14:53 -31.56081 -68.41857 1956 ft 8 kts 22°
2026-05-08 14:54 -31.56077 -68.41836 1956 ft 1 kts 133°
2026-05-08 14:54 -31.56088 -68.41836 1956 ft 2 kts 189°
2026-05-08 14:54 -31.56105 -68.41841 1959 ft 4 kts 189°
2026-05-08 14:54 -31.56147 -68.41841 1957 ft 9 kts 179°
2026-05-08 14:55 -31.56514 -68.41837 1957 ft 97 kts 179°
2026-05-08 14:55 -31.57459 -68.41828 1962 ft 172 kts 179°
2026-05-08 14:55 -31.58764 -68.41819 2610 ft 195 kts 180°
2026-05-08 14:55 -31.60161 -68.41808 3539 ft 207 kts 179°
2026-05-08 14:56 -31.61672 -68.41738 4323 ft 228 kts 172°
2026-05-08 14:56 -31.63213 -68.41050 4796 ft 250 kts 144°
2026-05-08 14:56 -31.64310 -68.39435 5651 ft 259 kts 115°
2026-05-08 14:56 -31.64635 -68.37351 6664 ft 265 kts 91°
2026-05-08 14:57 -31.64339 -68.35180 7497 ft 276 kts 81°
2026-05-08 14:57 -31.63892 -68.32946 8247 ft 284 kts 79°
2026-05-08 14:57 -31.63414 -68.30680 9080 ft 288 kts 77°
2026-05-08 14:57 -31.62928 -68.28376 9873 ft 294 kts 77°
2026-05-08 14:58 -31.62433 -68.26002 10502 ft 307 kts 77°
2026-05-08 14:58 -31.61914 -68.23500 11024 ft 321 kts 77°
2026-05-08 14:58 -31.61387 -68.20937 11836 ft 325 kts 77°
2026-05-08 14:58 -31.60855 -68.18335 12570 ft 332 kts 77°
2026-05-08 14:59 -31.60313 -68.15677 13284 ft 338 kts 78°
2026-05-08 14:59 -31.59201 -68.10213 14701 ft 350 kts 79°
2026-05-08 14:59 -31.58640 -68.07454 15387 ft 355 kts 79°
2026-05-08 15:00 -31.58060 -68.04611 16075 ft 361 kts 79°
2026-05-08 15:00 -31.57472 -68.01727 16702 ft 367 kts 79°
2026-05-08 15:00 -31.56873 -67.98790 17347 ft 372 kts 80°
2026-05-08 15:00 -31.56266 -67.95818 17966 ft 378 kts 79°
2026-05-08 15:01 -31.55648 -67.92793 18532 ft 385 kts 80°
2026-05-08 15:01 -31.55021 -67.89724 19153 ft 389 kts 80°
2026-05-08 15:01 -31.54383 -67.86614 19688 ft 395 kts 80°
2026-05-08 15:01 -31.53957 -67.84534 20058 ft 398 kts 81°
2026-05-08 15:02 -31.53518 -67.81320 20547 ft 400 kts 91°
2026-05-08 15:02 -31.53362 -67.78050 21085 ft 404 kts 93°
2026-05-08 15:02 -31.53240 -67.74733 21623 ft 408 kts 93°
2026-05-08 15:02 -31.53116 -67.71388 22141 ft 413 kts 93°
2026-05-08 15:03 -31.52979 -67.68009 22641 ft 418 kts 93°
2026-05-08 15:03 -31.52828 -67.64584 23118 ft 423 kts 93°
2026-05-08 15:03 -31.52667 -67.61120 23583 ft 428 kts 93°
2026-05-08 15:03 -31.52497 -67.57615 24051 ft 433 kts 93°
2026-05-08 15:04 -31.52323 -67.54077 24505 ft 438 kts 93°
2026-05-08 15:04 -31.52143 -67.50499 24999 ft 441 kts 93°
2026-05-08 15:04 -31.51961 -67.46910 25509 ft 443 kts 93°
2026-05-08 15:04 -31.51779 -67.43350 25966 ft 446 kts 93°
2026-05-08 15:05 -31.51592 -67.39695 26440 ft 448 kts 94°
2026-05-08 15:05 -31.51403 -67.36086 27227 ft 440 kts 95°
2026-05-08 15:05 -31.51215 -67.32487 27645 ft 445 kts 95°
2026-05-08 15:05 -31.51032 -67.28847 27885 ft 452 kts 95°
2026-05-08 15:06 -31.50845 -67.25149 28224 ft 456 kts 95°
2026-05-08 15:06 -31.50651 -67.21423 28621 ft 458 kts 95°
2026-05-08 15:06 -31.50454 -67.17691 29025 ft 460 kts 94°
2026-05-08 15:06 -31.50254 -67.13931 29345 ft 464 kts 95°
2026-05-08 15:07 -31.50053 -67.10133 29663 ft 468 kts 94°
2026-05-08 15:07 -31.49849 -67.06315 30030 ft 470 kts 95°
2026-05-08 15:07 -31.49642 -67.02487 30353 ft 473 kts 94°
2026-05-08 15:07 -31.49434 -66.98630 30640 ft 476 kts 94°
2026-05-08 15:08 -31.49223 -66.94746 30949 ft 479 kts 94°
2026-05-08 15:08 -31.49012 -66.90879 31124 ft 484 kts 94°
2026-05-08 15:08 -31.48573 -66.82828 31118 ft 498 kts 94°
2026-05-08 15:09 -31.48122 -66.74746 31098 ft 500 kts 93°
2026-05-08 15:09 -31.47659 -66.66637 31098 ft 498 kts 93°
2026-05-08 15:10 -31.47198 -66.58576 31086 ft 494 kts 93°
2026-05-08 15:10 -31.46735 -66.50570 31093 ft 490 kts 93°
2026-05-08 15:11 -31.46273 -66.42624 31091 ft 487 kts 93°
2026-05-08 15:11 -31.45813 -66.34753 31091 ft 486 kts 93°
2026-05-08 15:12 -31.45346 -66.26879 31080 ft 482 kts 93°
2026-05-08 15:12 -31.44876 -66.19109 30952 ft 476 kts 92°
2026-05-08 15:13 -31.44643 -66.15237 30680 ft 475 kts 93°
2026-05-08 15:13 -31.44409 -66.11396 30432 ft 470 kts 92°
2026-05-08 15:13 -31.44176 -66.07591 30183 ft 467 kts 92°
2026-05-08 15:13 -31.43944 -66.03805 29937 ft 465 kts 92°
2026-05-08 15:14 -31.43712 -66.00039 29694 ft 462 kts 92°
2026-05-08 15:14 -31.43481 -65.96305 29386 ft 458 kts 92°
2026-05-08 15:14 -31.43250 -65.92595 29003 ft 453 kts 91°
2026-05-08 15:14 -31.43023 -65.88975 28602 ft 450 kts 91°
2026-05-08 15:15 -31.42796 -65.85333 28204 ft 447 kts 91°
2026-05-08 15:15 -31.42567 -65.81712 27802 ft 444 kts 91°
2026-05-08 15:15 -31.42340 -65.78118 27400 ft 441 kts 91°
2026-05-08 15:15 -31.42112 -65.74541 26998 ft 439 kts 91°
2026-05-08 15:16 -31.41885 -65.70988 26603 ft 436 kts 91°
2026-05-08 15:16 -31.41658 -65.67460 26215 ft 433 kts 91°
2026-05-08 15:16 -31.41432 -65.63953 25837 ft 430 kts 90°
2026-05-08 15:16 -31.41207 -65.60476 25448 ft 427 kts 90°
2026-05-08 15:17 -31.40983 -65.57019 25063 ft 425 kts 90°
2026-05-08 15:17 -31.40759 -65.53582 24680 ft 422 kts 90°
2026-05-08 15:17 -31.40536 -65.50166 24299 ft 420 kts 90°
2026-05-08 15:17 -31.40313 -65.46763 23922 ft 417 kts 90°
2026-05-08 15:18 -31.40090 -65.43389 23545 ft 415 kts 90°
2026-05-08 15:18 -31.39869 -65.40068 23178 ft 413 kts 90°
2026-05-08 15:18 -31.39638 -65.36731 22764 ft 411 kts 90°
2026-05-08 15:18 -31.39418 -65.33372 22436 ft 408 kts 89°
2026-05-08 15:19 -31.39204 -65.30110 22055 ft 406 kts 89°
2026-05-08 15:19 -31.38979 -65.26822 21673 ft 405 kts 88°
2026-05-08 15:19 -31.38596 -65.23565 21328 ft 404 kts 83°
2026-05-08 15:19 -31.38061 -65.20341 20962 ft 402 kts 81°
2026-05-08 15:20 -31.37486 -65.17145 20589 ft 401 kts 80°
2026-05-08 15:20 -31.36913 -65.13958 20213 ft 399 kts 80°
2026-05-08 15:20 -31.36358 -65.10781 19842 ft 398 kts 81°
2026-05-08 15:20 -31.35818 -65.07612 19465 ft 396 kts 81°
2026-05-08 15:21 -31.35289 -65.04452 19095 ft 395 kts 81°
2026-05-08 15:21 -31.34767 -65.01294 18719 ft 394 kts 81°
2026-05-08 15:21 -31.34249 -64.98153 18330 ft 393 kts 81°
2026-05-08 15:21 -31.33729 -64.95007 17968 ft 392 kts 81°
2026-05-08 15:22 -31.33211 -64.91870 17603 ft 393 kts 81°
2026-05-08 15:22 -31.32698 -64.88779 17222 ft 391 kts 81°
2026-05-08 15:22 -31.32179 -64.85656 16852 ft 390 kts 81°
2026-05-08 15:22 -31.31661 -64.82545 16491 ft 389 kts 81°
2026-05-08 15:23 -31.31160 -64.79445 16109 ft 387 kts 84°
2026-05-08 15:23 -31.30971 -64.76325 15738 ft 382 kts 93°
2026-05-08 15:23 -31.31011 -64.73242 15383 ft 378 kts 96°
2026-05-08 15:23 -31.31102 -64.70178 15012 ft 376 kts 96°
2026-05-08 15:24 -31.31178 -64.67136 14650 ft 373 kts 96°
2026-05-08 15:24 -31.31226 -64.64116 14290 ft 370 kts 95°
2026-05-08 15:24 -31.31252 -64.61121 13937 ft 368 kts 95°
2026-05-08 15:24 -31.31266 -64.58141 13564 ft 366 kts 95°
2026-05-08 15:25 -31.31276 -64.55191 13200 ft 358 kts 95°
2026-05-08 15:25 -31.31281 -64.52312 12853 ft 351 kts 95°
2026-05-08 15:25 -31.31289 -64.49492 12515 ft 349 kts 95°
2026-05-08 15:25 -31.31295 -64.46665 12187 ft 347 kts 95°
2026-05-08 15:26 -31.31299 -64.43852 11874 ft 345 kts 96°
2026-05-08 15:26 -31.31303 -64.41050 11518 ft 344 kts 96°
2026-05-08 15:26 -31.31305 -64.38259 11167 ft 342 kts 96°
2026-05-08 15:26 -31.31309 -64.35487 10858 ft 339 kts 96°
2026-05-08 15:27 -31.31313 -64.32737 10483 ft 338 kts 96°
2026-05-08 15:27 -31.31315 -64.30029 10274 ft 324 kts 97°
2026-05-08 15:27 -31.31316 -64.27460 10120 ft 309 kts 97°
2026-05-08 15:27 -31.31314 -64.25003 9986 ft 294 kts 97°
2026-05-08 15:28 -31.31312 -64.22646 9748 ft 289 kts 97°
2026-05-08 15:28 -31.31317 -64.20311 9490 ft 285 kts 98°
2026-05-08 15:28 -31.31367 -64.18009 9227 ft 282 kts 100°
2026-05-08 15:28 -31.31440 -64.15720 8966 ft 281 kts 100°
2026-05-08 15:29 -31.31512 -64.13439 8701 ft 280 kts 100°
2026-05-08 15:29 -31.31587 -64.11164 8415 ft 280 kts 99°
2026-05-08 15:29 -31.31658 -64.08896 8148 ft 279 kts 99°
2026-05-08 15:29 -31.31724 -64.06630 7874 ft 278 kts 99°
2026-05-08 15:30 -31.31788 -64.04368 7594 ft 277 kts 98°
2026-05-08 15:30 -31.31849 -64.02153 7318 ft 276 kts 98°
2026-05-08 15:30 -31.31928 -63.99921 7037 ft 272 kts 103°
2026-05-08 15:30 -31.32544 -63.97927 6756 ft 255 kts 134°
2026-05-08 15:31 -31.33821 -63.96632 6537 ft 237 kts 157°
2026-05-08 15:31 -31.35332 -63.95970 6272 ft 228 kts 175°
2026-05-08 15:31 -31.36898 -63.95848 6024 ft 223 kts 184°
2026-05-08 15:31 -31.38449 -63.95854 5771 ft 223 kts 184°
2026-05-08 15:32 -31.39997 -63.95868 5521 ft 220 kts 184°
2026-05-08 15:32 -31.41463 -63.96115 5268 ft 208 kts 205°
2026-05-08 15:32 -31.42585 -63.97094 5055 ft 199 kts 228°
2026-05-08 15:32 -31.43276 -63.98466 4858 ft 192 kts 247°
2026-05-08 15:33 -31.43509 -63.99961 4748 ft 184 kts 262°
2026-05-08 15:33 -31.43520 -64.01411 4684 ft 179 kts 264°
2026-05-08 15:33 -31.43517 -64.02878 4607 ft 183 kts 265°
2026-05-08 15:33 -31.43510 -64.04378 4547 ft 185 kts 265°
2026-05-08 15:34 -31.43500 -64.05852 4413 ft 176 kts 265°
2026-05-08 15:34 -31.43501 -64.07237 4268 ft 164 kts 264°
2026-05-08 15:34 -31.43497 -64.08564 4190 ft 161 kts 264°
2026-05-08 15:34 -31.43495 -64.09825 4134 ft 153 kts 264°
2026-05-08 15:35 -31.43491 -64.11062 4005 ft 151 kts 264°
2026-05-08 15:35 -31.43495 -64.12290 3900 ft 151 kts 264°
2026-05-08 15:35 -31.43494 -64.13513 3808 ft 150 kts 264°
2026-05-08 15:35 -31.43489 -64.14737 3723 ft 151 kts 264°
2026-05-08 15:36 -31.43455 -64.15936 3589 ft 151 kts 274°
2026-05-08 15:36 -31.43132 -64.16704 3468 ft 164 kts 308°
2026-05-08 15:36 -31.41757 -64.17499 3136 ft 165 kts 324°
2026-05-08 15:36 -31.40777 -64.18206 2627 ft 171 kts 325°
2026-05-08 15:37 -31.39808 -64.19006 2558 ft 168 kts 323°
2026-05-08 15:37 -31.38884 -64.19777 2657 ft 156 kts 328°
2026-05-08 15:37 -31.37974 -64.20412 2551 ft 152 kts 336°
2026-05-08 15:37 -31.36959 -64.20773 2457 ft 152 kts 352°
2026-05-08 15:38 -31.35885 -64.20821 2321 ft 158 kts
2026-05-08 15:38 -31.34779 -64.20802 2145 ft 157 kts
2026-05-08 15:38 -31.33712 -64.20801 1875 ft 150 kts 359°
2026-05-08 15:38 -31.32668 -64.20813 1691 ft 151 kts
2026-05-08 15:39 -31.31638 -64.20825 1618 ft 134 kts
2026-05-08 15:39 -31.30918 -64.20837 1615 ft 73 kts 359°
2026-05-08 15:39 -31.30567 -64.20841 1619 ft 26 kts 359°
2026-05-08 15:39 -31.30481 -64.20825 1615 ft 8 kts 353°
2026-05-08 15:40 -31.30475 -64.20854 1612 ft 4 kts 231°
2026-05-08 15:40 -31.30539 -64.20847 1619 ft 13 kts 168°
2026-05-08 15:40 -31.30626 -64.20841 1616 ft 12 kts 178°
2026-05-08 15:40 -31.30711 -64.20841 1619 ft 12 kts 179°
2026-05-08 15:41 -31.30794 -64.20839 1611 ft 12 kts 179°
2026-05-08 15:41 -31.30875 -64.20838 1616 ft 13 kts 179°
2026-05-08 15:41 -31.30982 -64.20836 1618 ft 16 kts 180°
2026-05-08 15:41 -31.31094 -64.20834 1616 ft 16 kts 179°
2026-05-08 15:42 -31.31222 -64.20832 1620 ft 21 kts 179°
2026-05-08 15:42 -31.31360 -64.20830 1619 ft 15 kts 179°
2026-05-08 15:42 -31.31450 -64.20854 1613 ft 13 kts 222°
2026-05-08 15:42 -31.31466 -64.20930 1612 ft 6 kts 269°
2026-05-08 15:43 -31.31467 -64.20982 1612 ft 6 kts 269°
2026-05-08 15:43 -31.31471 -64.21032 1612 ft 6 kts 263°
2026-05-08 15:43 -31.31477 -64.21081 1617 ft 6 kts 262°
2026-05-08 15:43 -31.31479 -64.21130 1620 ft 6 kts 268°
2026-05-08 15:44 -31.31486 -64.21176 1612 ft 4 kts 259°
2026-05-08 15:44 -31.31486 -64.21180 1612 ft 0 kts 260°